Weather History for KSGF - February, 2014

Change the Weather History Date:

Saturday, February 8, 2014

  Actual Average Record
Temperature  
Mean Temperature 25 °F 35 °F  
Max Temperature 31 °F 46 °F 72 °F (1943)
Min Temperature 19 °F 24 °F -17 °F (1895)
Degree Days  
Heating Degree Days 40 30  
Month to date heating degree days 349 244  
Since 1 July heating degree days 3378 3057  
Cooling Degree Days 0 0  
Month to date cooling degree days 0 0  
Year to date cooling degree days 0 0  
Moisture  
Dew Point 20 °F    
Average Humidity 82    
Maximum Humidity 92    
Minimum Humidity 72    
Precipitation  
Precipitation 0.00 in 0.08 in 0.75 in (1980)
Month to date precipitation 0.29 0.62  
Year to date precipitation 1.58 3.09  
Snow  
Snow 0.00 in - - ()
Month to date snowfall 2.3  
Since 1 July snowfall 25.3  
Snow Depth 0.00 in    
Sea Level Pressure  
Sea Level Pressure 30.15 in    
Wind  
Wind Speed 7 mph (SSE)    
Max Wind Speed 15 mph    
Max Gust Speed 19 mph    
Visibility 9 miles    
Events      
T = Trace of Precipitation, MM = Missing Value Source: NWS Daily Summary

Daily Weather History Graph

Daily Weather History Graph

Search for Another Location

Airport or City:

Trip Planner

Search our weather history database for the weather conditions in past years. The results will help you decide how hot, cold, wet, or windy it might be!

Date:

Astronomy

Feb. 08, 2014 Rise Set
Actual Time 7:10 AM CST 5:45 PM CST
Civil Twilight 6:43 AM CST 6:12 PM CST
Nautical Twilight 6:12 AM CST 6:43 PM CST
Astronomical Twilight 5:41 AM CST 7:14 PM CST
Moon 12:42 PM CST (2/8) 2:21 AM CST (2/8)
Length of Visible Light 11h 29m
Length of Day
10h 35m
Waxing Gibbous, 69% of the Moon is Illuminated
Feb 8
Waxing Gibbous
Feb 14
Full
Feb 22
Last Quarter
Mar 1
New
Mar 8
First Quarter

Hourly Weather History & Observations

Time (CST) Temp. Windchill Dew Point Humidity Pressure Visibility Wind Dir Wind Speed Gust Speed Precip Events Conditions
12:52 AM 19.9 °F 7.9 °F 12.0 °F 71% 30.24 in 10.0 mi SSE 11.5 mph - N/A   Overcast
1:52 AM 19.0 °F 6.8 °F 12.0 °F 74% 30.23 in 10.0 mi SSE 11.5 mph - N/A   Overcast
2:52 AM 19.0 °F 7.5 °F 12.9 °F 77% 30.22 in 10.0 mi SSE 10.4 mph - N/A   Overcast
3:09 AM 19.0 °F 10.0 °F 12.9 °F 77% 30.16 in 10.0 mi SSE 6.9 mph - N/A   Overcast
3:52 AM 19.0 °F 8.2 °F 14.0 °F 81% 30.22 in 10.0 mi SSE 9.2 mph - N/A   Overcast
4:52 AM 19.0 °F 8.2 °F 14.0 °F 81% 30.22 in 10.0 mi SSE 9.2 mph - N/A   Overcast
5:07 AM 19.0 °F 7.5 °F 14.0 °F 81% 30.16 in 10.0 mi SSE 10.4 mph - N/A   Overcast
5:52 AM 19.0 °F 9.0 °F 15.1 °F 85% 30.21 in 10.0 mi South 8.1 mph - N/A   Overcast
5:59 AM 19.9 °F 11.1 °F 16.0 °F 85% 30.16 in 10.0 mi SSE 6.9 mph - N/A   Overcast
6:23 AM 19.9 °F 10.1 °F 16.0 °F 85% 30.15 in 10.0 mi SSE 8.1 mph - N/A   Overcast
6:32 AM 19.9 °F 10.1 °F 16.0 °F 85% 30.15 in 10.0 mi SSE 8.1 mph - N/A   Overcast
6:52 AM 19.9 °F 8.6 °F 16.0 °F 85% 30.20 in 9.0 mi SSE 10.4 mph - N/A   Overcast
7:11 AM 19.9 °F 9.3 °F 16.0 °F 85% 30.14 in 9.0 mi SSE 9.2 mph - N/A   Overcast
7:42 AM 19.9 °F 10.1 °F 17.1 °F 89% 30.15 in 8.0 mi SSE 8.1 mph - N/A   Overcast
7:52 AM 19.9 °F 11.1 °F 17.1 °F 89% 30.20 in 8.0 mi SSE 6.9 mph - N/A   Overcast
8:52 AM 19.9 °F 11.1 °F 18.0 °F 92% 30.23 in 4.0 mi SSE 6.9 mph - N/A   Overcast
9:39 AM 21.0 °F 10.6 °F 19.0 °F 92% 30.16 in 5.0 mi SSE 9.2 mph - N/A   Overcast
9:52 AM 21.9 °F 11.7 °F 19.0 °F 89% 30.22 in 5.0 mi SSE 9.2 mph - N/A   Overcast
10:52 AM 24.1 °F 16.0 °F 19.9 °F 84% 30.20 in 6.0 mi SSE 6.9 mph - N/A   Overcast
11:52 AM 26.1 °F 18.4 °F 21.0 °F 81% 30.19 in 8.0 mi South 6.9 mph - N/A   Overcast
12:52 PM 27.0 °F 19.5 °F 23.0 °F 85% 30.16 in 9.0 mi South 6.9 mph - N/A   Overcast
1:52 PM 28.9 °F 21.1 °F 24.1 °F 82% 30.15 in 9.0 mi SW 8.1 mph - N/A   Overcast
2:52 PM 28.9 °F 20.4 °F 24.1 °F 82% 30.13 in 9.0 mi SSW 9.2 mph - N/A   Overcast
3:52 PM 30.0 °F 21.7 °F 24.1 °F 79% 30.10 in 10.0 mi SSW 9.2 mph - N/A   Overcast
4:42 PM 30.9 °F 25.2 °F 24.1 °F 76% 30.04 in 10.0 mi SSE 5.8 mph - N/A   Mostly Cloudy
4:52 PM 30.9 °F 26.2 °F 24.1 °F 76% 30.09 in 10.0 mi South 4.6 mph - N/A   Overcast
5:37 PM 30.0 °F 25.2 °F 23.0 °F 75% 30.03 in 10.0 mi SSE 4.6 mph - N/A   Scattered Clouds
5:52 PM 30.0 °F 26.5 °F 23.0 °F 75% 30.08 in 10.0 mi SE 3.5 mph - N/A   Partly Cloudy
6:52 PM 27.0 °F - 21.9 °F 81% 30.11 in 10.0 mi Calm Calm - N/A   Clear
7:23 PM 27.0 °F 20.5 °F 21.9 °F 81% 30.08 in 10.0 mi NW 5.8 mph - N/A   Mostly Cloudy
7:52 PM 28.0 °F 24.2 °F 23.0 °F 81% 30.12 in 10.0 mi NNE 3.5 mph - N/A   Overcast
8:52 PM 28.9 °F 22.8 °F 24.1 °F 82% 30.14 in 9.0 mi NNE 5.8 mph - N/A   Overcast
9:52 PM 30.0 °F - 24.1 °F 79% 30.14 in 9.0 mi Calm Calm - N/A   Overcast
10:48 PM 28.4 °F - 24.8 °F 86% 30.10 in 8.0 mi Calm Calm - N/A   Overcast
10:52 PM 28.9 °F - 25.0 °F 85% 30.14 in 7.0 mi Calm Calm - N/A   Overcast
11:52 PM 28.9 °F - 26.1 °F 89% 30.14 in 4.0 mi Calm Calm - N/A   Overcast